Regional Weather Roundup
Issued by NWS

Home | Current Version | Previous Version | Graphics & Text | Print | Product List | Glossary On
Versions: 1 2 3 4 5 6 7 8 9 10 11 12 13 14 15 16 17 18 19 20 21 22 23 24 25 26 27 28 29 30 31 32 33 34 35 36 37 38 39 40 41 42 43 44 45 46 47 48 49 50
000
ASUS45 KCYS 201310
RWRWY

WYOMING REGIONAL WEATHER ROUNDUP
NATIONAL WEATHER SERVICE CHEYENNE WY
700 AM MDT THU JUL 20 2017

NOTE:  "FAIR" INDICATES FEW OR NO CLOUDS BELOW 12,000 FEET
WITH NO SIGNIFICANT WEATHER AND/OR OBSTRUCTIONS TO VISIBILITY.

WYZ001-201400-
YELLOWSTONE NATIONAL PARK

CITY           SKY/WX    TMP DP  RH WIND       PRES   REMARKS
LK YELLOWSTONE   N/A     43  38  82 CALM      30.35S
W YELLOWSTONE  NOT AVBL

$$
WYZ002>013-054>058-071-098>099-201400-
NORTHERN WYOMING

CITY           SKY/WX    TMP DP  RH WIND       PRES   REMARKS
JACKSON        CLEAR     48  41  76 N10       30.27R
CODY           FAIR      66  39  37 SE9       30.10R
GREYBULL       FAIR      72  51  47 E6        30.02R
WORLAND        FAIR      74  54  49 SE13      30.03S
SHERIDAN       FAIR      63  55  75 N5        30.00S
BUFFALO        FAIR      66  53  63 S12       30.09S
GILLETTE       FAIR      73  55  53 S16       30.09S
HULETT         FAIR      73  55  53 W5        30.12S
NEWCASTLE      FAIR      70  55  60 CALM      30.15R

$$
WYZ014>020-022>026-101>103-201400-
CENTRAL WYOMING

CITY           SKY/WX    TMP DP  RH WIND       PRES   REMARKS
BIG PINEY      FAIR      52  48  86 CALM      30.32R
PINEDALE       FAIR      54  50  87 NW7       30.34R
DUBOIS         FAIR      57  43  58 MISG      30.30R
LANDER         FAIR      61  53  75 SW3       30.16R
RIVERTON       FAIR      64  54  69 W7        30.17R
CASPER         FAIR      67  54  63 SW7       30.19R
DOUGLAS        FAIR      69  57  65 SE9       30.19R

$$
WYZ021-027>030-104>119-201400-
SOUTHERN WYOMING

CITY           SKY/WX    TMP DP  RH WIND       PRES   REMARKS
EVANSTON       FAIR      58  48  69 SE7       30.30S
KEMMERER         N/A     54  46  76 N7        30.33R
FORT BRIDGER   FAIR      58  48  68 W3        30.33R
ROCK SPRINGS   FAIR      64  50  60 CALM      30.29R
RAWLINS        FAIR      58  54  86 CALM      30.33R
SARATOGA       FAIR      59  54  82 W6        30.35R
LARAMIE        FAIR      58  52  80 VRB3      30.35R
CHEYENNE       FAIR      66  54  65 CALM      30.29R
TORRINGTON     CLOUDY    69  65  86 N3        30.16R
PINE BLUFFS    FAIR      61  61 100 W3        30.24R

$$



USA.gov is the U.S. government's official web portal to all federal, state and local government web resources and services.